カタログに戻る

PLATERO

運用中科学PO
NORAD 58262·PAYLOAD·🇪🇸 Spain

打ち上げ Nov 11, 2023 から Vandenberg Space Force Base

Loading…

次のパス (今後24時間)

TLE

最新Source: Space-Track

元期: Sep 14, 2026, 13:55 UTC

1 58262U 23174G   26257.58053941  .00044677  00000-0  36853-3 0  9993
2 58262  97.3923   0.2355 0004888 117.2915 242.8845 15.70215042160183

AllMySatでPLATEROをリアルタイム追跡

Download on the App Store